Location: Newark
(45.5000°N, 11.4167°E)
Time: 11:03:30
(UTC+00:00)

ISS - Visible Passes

Search period start: 19 July 2019 00:00
Search period end: 29 July 2019 00:00
Orbit: 409 x 418 km, 51.6° (Epoch: 19 July)

Date Brightness Start Highest point End Pass type
(mag) Time Alt. Az. Time Alt. Az. Time Alt. Az.
19 Jul -2.3 00:18:26 10° NW 00:21:35 37° NNE 00:24:42 10° E visible
19 Jul -3.7 01:55:07 10° WNW 01:58:21 51° SW 02:01:34 10° SE visible
19 Jul -3.8 20:14:33 10° WSW 20:17:53 86° NNW 20:21:14 10° ENE visible
19 Jul -1.8 21:51:53 10° WNW 21:54:53 30° N 21:57:53 10° NE visible
19 Jul -1.9 23:29:08 10° NW 23:32:10 31° N 23:35:11 10° ENE visible
20 Jul -4.0 01:05:47 10° WNW 01:11:56 14° ESE 01:12:26 10° ESE visible
20 Jul -1.9 02:45:53 13° SW 02:45:53 13° SW 02:46:57 10° SSW visible
20 Jul -2.1 21:02:20 10° W 21:05:28 35° NNW 21:08:34 10° NE visible
20 Jul -1.7 22:39:47 10° WNW 22:42:44 28° N 22:45:19 12° ENE visible
21 Jul -1.9 00:16:30 10° WNW 00:18:02 25° NW 00:18:02 25° NW visible
21 Jul -2.6 20:12:49 10° W 20:16:04 45° NNW 20:19:18 10° NE visible
21 Jul -1.6 21:50:21 10° WNW 21:53:16 27° N 21:56:10 10° ENE visible
21 Jul -2.2 23:27:14 10° NW 23:29:27 33° NNW 23:29:27 33° NNW visible
22 Jul -3.2 19:23:21 10° WSW 19:26:41 64° NNW 19:30:01 10° ENE visible
22 Jul -1.7 21:00:50 10° WNW 21:03:47 28° N 21:06:44 10° ENE visible
22 Jul -2.3 22:37:55 10° NW 22:41:03 35° NNE 22:41:15 35° NNE visible
23 Jul -1.8 20:11:17 10° WNW 20:14:18 31° N 20:17:21 10° NE visible
23 Jul -1.9 21:48:35 10° NW 21:51:35 30° N 21:53:12 20° ENE visible
23 Jul -1.2 23:25:14 10° WNW 23:26:00 16° WNW 23:26:00 16° WNW visible
24 Jul -2.2 19:21:41 10° W 19:24:51 37° NNW 19:28:00 10° NE visible
24 Jul -1.8 20:59:09 10° WNW 21:02:06 27° N 21:05:01 10° ENE visible
24 Jul -2.2 22:35:55 10° WNW 22:38:03 34° NW 22:38:03 34° NW visible
25 Jul -1.7 20:09:39 10° WNW 20:12:35 27° N 20:15:30 10° ENE visible
25 Jul -2.8 21:46:35 10° NW 21:49:47 42° NNE 21:50:09 40° NE visible
26 Jul -2.2 20:57:14 10° NW 21:00:19 34° NNE 21:02:17 18° ENE visible
26 Jul -1.5 22:33:53 10° WNW 22:35:05 20° WNW 22:35:05 20° WNW visible
27 Jul -2.0 20:07:49 10° NW 20:10:49 29° N 20:13:48 10° ENE visible
27 Jul -3.2 21:44:30 10° WNW 21:47:15 56° NW 21:47:15 56° NW visible
28 Jul -1.8 19:18:20 10° WNW 19:21:16 27° N 19:24:12 10° ENE visible
28 Jul -3.2 20:55:08 10° NW 20:58:25 53° NNE 20:59:27 36° ENE visible
28 Jul -0.8 22:32:03 10° WNW 22:32:15 11° W 22:32:15 11° W visible
